Stations météo

Publicité
Nice, France (7690): Température de l'air & dewpoint: 13.12.2018 02:00:00 - 19.12.2018 02:00:00 (CET)Nice, France (7690): Température de l'air 5cm: 13.12.2018 02:00:00 - 19.12.2018 02:00:00 (CET)Nice, France (7690): Température de l'air -20cm & Température de l'air -100cm: 13.12.2018 02:00:00 - 19.12.2018 02:00:00 (CET)Nice, France (7690): Vitesse du vent & gusts: 13.12.2018 02:00:00 - 19.12.2018 02:00:00 (CET)Nice, France (7690): Direction du vent: 13.12.2018 02:00:00 - 19.12.2018 02:00:00 (CET)Nice, France (7690): reduced air pressure: 13.12.2018 02:00:00 - 19.12.2018 02:00:00 (CET)Nice, France (7690): visibility: 13.12.2018 02:00:00 - 19.12.2018 02:00:00 (CET)Nice, France (7690): Ensoleillement: 13.12.2018 02:00:00 - 19.12.2018 02:00:00 (CET)Nice, France (7690): Quantités de précipitations: 13.12.2018 02:00:00 - 19.12.2018 02:00:00 (CET)
Date & Time tt [°C] td [°C] tt 5cm [°C] tt -20cm [°C] tt -100cm [°C] ff [km/h] ff [knt] fx [km/h] fx [knt] dd ppp [hPa] vv [km] sd [min] rr [mm]
19.12.2018 02:00:00 9,0 3,0 7,9 12,4 14,1 13 7 23 13 NNW 1024,1 50 0 0,0
19.12.2018 01:00:00 8,9 3,1 7,8 12,4 14,2 12 6 26 14 NNW 1024,5 40 0 0,0
19.12.2018 00:00:00 8,6 3,4 8,0 12,4 14,3 22 12 29 16 NNW 1025,1 40 0 0,0
18.12.2018 23:00:00 8,9 3,7 8,1 12,4 14,3 13 7 19 10 NNW 1025,3 40 0 0,0
18.12.2018 22:00:00 9,2 4,2 8,5 12,4 14,0 15 8 22 12 NNW 1025,7 40 0 0,0
18.12.2018 21:00:00 9,5 4,7 8,9 12,4 14,6 13 7 21 11 NNW 1025,8 30 0 0,0
18.12.2018 20:00:00 9,4 5,4 8,5 12,4 14,2 12 7 21 11 NNW 1025,9 20 0 0,0
18.12.2018 19:00:00 9,3 5,7 8,7 12,4 14,3 12 7 19 10 NNW 1025,7 40 0 0,0
18.12.2018 18:00:00 10,0 6,5 9,4 12,4 14,2 13 7 15 8 NW 1025,8 40 0 0,0
18.12.2018 17:00:00 13,0 8,1 11,1 12,5 14,4 5 3 11 6 WSW 1025,6 40 0 0,0
18.12.2018 16:00:00 13,5 7,9 13,2 12,4 14,5 6 3 12 7 SSE 1025,3 40 31 0,0
18.12.2018 15:00:00 13,9 8,3 15,9 12,5 14,2 6 3 9 5 SSE 1025,5 40 55 0,0
18.12.2018 14:00:00 14,6 6,7 14,5 12,5 14,2 0 0 11 6 N 1025,7 40 52 0,0
18.12.2018 13:00:00 13,2 3,0 12,8 12,5 14,0 8 4 25 13 NNW 1026,6 40 60 0,0
18.12.2018 12:00:00 11,8 1,1 8,9 12,5 14,3 16 9 24 13 NNW 1027,6 40 46 0,0
18.12.2018 11:00:00 9,1 0,3 9,0 12,5 14,2 19 10 36 19 NNW 1028,1 40 30 0,0
18.12.2018 10:00:00 8,3 0,3 8,1 12,5 14,4 24 13 36 19 NNW 1027,9 40 60 0,0
18.12.2018 09:00:00 6,9 0,1 5,7 12,5 14,2 23 12 34 18 NNW 1027,5 40 32 0,0
18.12.2018 08:00:00 6,5 0,0 5,5 12,5 14,3 25 14 37 20 NNW 1027,1 40 0 0,0
18.12.2018 07:00:00 6,3 0,4 5,5 12,5 14,3 21 11 31 17 NNW 1026,6 30 0 0,0
18.12.2018 06:00:00 6,8 0,7 5,5 12,5 14,3 18 10 29 16 NNW 1026,2 30 0 0,0
18.12.2018 05:00:00 6,9 1,2 6,1 12,5 14,3 22 12 29 15 NNW 1026,5 30 0 0,0
18.12.2018 04:00:00 7,3 1,6 6,5 12,5 14,5 19 10 27 15 NNW 1026,7 30 0 0,0
18.12.2018 03:00:00 7,8 1,8 7,0 12,4 14,2 22 12 26 14 NNW 1026,7 30 0 0,0
18.12.2018 02:00:00 8,9 2,0 6,5 12,5 14,5 17 9 30 16 NNW 1026,0 30 0 0,0
18.12.2018 01:00:00 8,2 3,4 6,9 12,4 14,2 11 6 24 13 N 1026,0 30 0 0,0
18.12.2018 00:00:00 8,8 4,2 7,8 12,4 14,2 17 9 27 15 NNW 1026,1 30 0 0,0
17.12.2018 23:00:00 9,4 5,0 7,7 12,4 14,5 18 10 29 15 NNW 1025,9 30 0 0,0
17.12.2018 22:00:00 8,6 5,5 7,4 12,4 14,5 16 9 28 15 NNW 1025,3 20 0 0,0
17.12.2018 21:00:00 9,2 6,5 7,8 12,4 14,3 13 7 30 16 NNW 1024,9 20 0 0,0
17.12.2018 20:00:00 9,5 7,1 7,9 12,4 14,5 8 5 21 11 NNW 1024,8 20 0 0,0
17.12.2018 19:00:00 10,1 8,0 8,8 12,4 14,4 10 5 13 7 NNW 1023,8 20 0 0,0
17.12.2018 18:00:00 13,1 7,7 11,0 12,4 14,3 6 3 16 9 SSW 1023,3 35 0 0,0
17.12.2018 17:00:00 13,3 8,4 12,7 12,4 14,3 12 7 17 9 SSW 1022,3 35 29 0,0
17.12.2018 16:00:00 13,7 8,1 13,7 12,4 14,4 11 6 18 10 S 1021,1 35 60 0,0
17.12.2018 15:00:00 13,8 8,4 13,6 12,4 14,4 15 8 22 12 S 1019,6 35 48 0,0
17.12.2018 14:00:00 13,5 8,3 15,3 12,4 14,4 16 9 25 13 SSW 1018,8 35 57 0,0
17.12.2018 13:00:00 13,3 9,5 13,6 12,4 14,4 8 5 16 8 W 1018,5 35 60 0,0
17.12.2018 12:00:00 11,8 7,7 10,3 12,4 14,4 12 6 20 11 NNW 1018,8 30 49 0,0
17.12.2018 11:00:00 9,7 6,8 9,8 12,4 14,4 12 6 24 13 NNW 1019,1 30 14 0,0
17.12.2018 10:00:00 9,3 6,7 8,1 12,4 14,5 15 8 21 11 NW 1018,5 30 21 0,0
17.12.2018 09:00:00 8,5 6,5 8,0 12,4 14,4 15 8 19 11 NW 1017,2 25 0 0,0
17.12.2018 08:00:00 8,5 6,8 7,9 12,4 14,5 10 5 20 11 NNW 1016,1 20 0 0,0
17.12.2018 07:00:00 8,7 7,3 8,1 12,4 14,3 5 3 24 13 NE 1015,1 12 0 0,6
17.12.2018 06:00:00 10,3 8,4 9,3 12,4 14,3 19 10 27 15 E 1014,4 12 0 0,4
17.12.2018 05:00:00 10,5 8,9 9,6 12,4 14,5 20 11 31 17 E 1013,9 12 0 0,0
17.12.2018 04:00:00 10,8 9,4 7,7 12,4 14,3 22 12 29 15 E 1013,7 12 0 0,0
17.12.2018 03:00:00 8,0 6,9 7,5 12,4 14,4 11 6 19 10 NNW 1013,6 12 0 0,6
17.12.2018 02:00:00 8,6 7,2 7,6 12,5 14,6 7 4 28 15 NNE 1013,2 12 0 1,6
17.12.2018 01:00:00 8,8 6,2 7,9 12,5 14,4 6 3 19 11 N 1013,6 25 0 0,0
17.12.2018 00:00:00 8,4 5,9 7,8 12,5 14,4 11 6 24 13 NNW 1013,8 25 0 0,0
16.12.2018 23:00:00 8,5 5,9 8,1 12,4 14,6 13 7 23 12 NNW 1014,1 25 0 0,0
16.12.2018 22:00:00 8,5 5,6 8,0 12,5 14,6 11 6 20 11 NW 1014,1 25 0 0,0
16.12.2018 21:00:00 8,5 5,8 7,4 12,5 14,5 10 5 29 16 NNW 1013,8 25 0 0,0
16.12.2018 20:00:00 7,8 5,8 7,4 12,5 14,6 13 7 22 12 N 1013,0 12 0 0,4
16.12.2018 19:00:00 8,0 5,8 7,4 12,5 14,7 14 7 22 12 NNW 1013,8 12 0 0,6
16.12.2018 18:00:00 8,0 5,6 7,2 12,5 14,3 13 7 21 11 NNW 1013,7 12 0 0,2
16.12.2018 17:00:00 8,0 5,8 7,1 12,5 14,2 14 7 23 12 NNW 1014,2 12 0 0,4
16.12.2018 16:00:00 8,4 5,7 7,5 12,5 14,6 13 7 26 14 NNW 1014,8 12 0 0,2
16.12.2018 15:00:00 8,9 5,8 7,4 12,5 14,2 14 8 29 15 NNE 1014,5 15 0 0,0
16.12.2018 14:00:00 7,6 5,2 6,8 12,5 14,7 14 7 22 12 NNW 1015,4 12 0 0,4
16.12.2018 13:00:00 7,3 4,9 6,6 12,6 14,7 18 10 29 16 NNW 1016,7 8 0 1,0
16.12.2018 12:00:00 7,8 3,6 7,1 12,5 14,4 18 10 27 15 NNW 1017,3 20 0 0,2
16.12.2018 11:00:00 8,3 2,3 7,8 12,6 14,8 16 9 25 13 NNW 1017,8 30 0 0,0
16.12.2018 10:00:00 8,2 1,6 8,1 12,6 14,9 18 10 23 12 NNW 1017,4 30 12 0,0
16.12.2018 09:00:00 7,7 1,3 6,6 12,6 14,5 13 7 24 13 NNW 1016,7 30 28 0,0
16.12.2018 08:00:00 7,3 0,9 6,7 12,6 14,6 18 10 28 15 NNW 1016,6 30 0 0,0
16.12.2018 07:00:00 7,9 0,8 7,6 12,6 14,6 16 9 23 13 NNW 1016,9 30 0 0,0
16.12.2018 06:00:00 8,1 1,0 7,4 12,6 14,6 11 6 19 11 N 1017,0 20 0 0,0
16.12.2018 05:00:00 7,8 1,2 7,5 12,6 14,7 13 7 23 13 NNW 1017,5 20 0 0,0
16.12.2018 04:00:00 7,7 1,1 7,4 12,6 14,7 16 9 24 13 NNW 1017,9 20 0 0,0
16.12.2018 03:00:00 7,5 1,1 7,0 12,6 14,6 18 10 24 13 NNW 1018,1 20 0 0,0
16.12.2018 02:00:00 7,2 1,3 6,9 12,6 14,5 15 8 24 13 NNW 1018,2 20 0 0,0
16.12.2018 01:00:00 7,2 1,5 6,6 12,6 14,6 20 11 27 15 NNW 1018,6 20 0 0,0
16.12.2018 00:00:00 7,1 1,4 6,5 12,6 14,7 20 11 28 15 NNW 1019,0 20 0 0,0
15.12.2018 23:00:00 7,1 1,8 6,4 12,6 14,7 22 12 28 15 NNW 1019,4 20 0 0,0
15.12.2018 22:00:00 6,9 2,0 6,3 12,6 14,6 17 9 25 14 NNW 1019,4 20 0 0,0
15.12.2018 21:00:00 7,0 2,7 6,3 12,6 14,6 18 10 26 14 NW 1019,6 20 0 0,0
15.12.2018 20:00:00 7,4 3,3 6,5 12,6 14,7 17 9 21 11 NW 1019,8 20 0 0,0
15.12.2018 19:00:00 7,9 3,5 6,8 12,6 14,5 11 6 18 10 NW 1019,6 40 0 0,0
15.12.2018 18:00:00 9,8 3,7 8,0 12,6 14,4 7 4 22 12 NW 1019,3 40 0 0,0
15.12.2018 17:00:00 10,9 3,7 10,0 12,6 14,6 13 7 21 11 WSW 1019,3 40 0 0,0
15.12.2018 16:00:00 11,4 2,7 10,9 12,7 14,5 12 6 26 14 SW 1019,2 40 31 0,0
15.12.2018 15:00:00 12,3 3,8 11,7 12,7 14,7 12 7 19 11 SW 1018,6 40 36 0,0
15.12.2018 14:00:00 11,6 3,6 11,4 12,6 14,9 12 7 22 12 SSW 1018,5 40 0 0,0
15.12.2018 13:00:00 11,6 2,9 11,9 12,7 14,8 12 6 19 10 SW 1018,8 18 14 0,0
15.12.2018 12:00:00 11,7 1,3 9,3 12,7 14,7 6 3 14 7 NNW 1019,2 40 39 0,0
15.12.2018 11:00:00 9,1 0,0 8,0 12,7 14,7 12 6 23 13 NW 1019,5 40 0 0,0
15.12.2018 10:00:00 8,3 0,0 7,7 12,7 14,7 16 9 29 16 NNW 1018,9 40 0 0,0
15.12.2018 09:00:00 8,0 0,0 7,1 12,7 14,7 17 9 25 13 NNW 1018,7 40 0 0,0
15.12.2018 08:00:00 7,7 0,4 7,4 12,7 14,4 19 10 29 16 NNW 1017,9 40 0 0,0
15.12.2018 07:00:00 7,8 0,5 7,3 12,7 14,8 19 10 26 14 NNW 1017,4 40 0 0,0
15.12.2018 06:00:00 7,7 0,9 7,2 12,7 14,8 16 8 24 13 NW 1016,9 40 0 0,0
15.12.2018 05:00:00 7,8 1,2 7,2 12,7 14,3 18 10 24 13 NW 1016,5 40 0 0,0
15.12.2018 04:00:00 7,9 1,3 7,5 12,7 14,6 17 9 25 13 NW 1016,3 40 0 0,0
15.12.2018 03:00:00 8,1 1,5 7,7 12,7 14,8 18 10 24 13 NW 1016,5 40 0 0,0
15.12.2018 02:00:00 8,0 1,6 7,7 12,7 14,6 17 9 25 14 NW 1016,1 40 0 0,0
15.12.2018 01:00:00 8,3 1,4 7,8 12,7 14,6 20 11 26 14 NW 1015,5 40 0 0,0
15.12.2018 00:00:00 8,4 1,5 8,0 12,7 14,7 20 11 26 14 NW 1015,4 40 0 0,0
14.12.2018 23:00:00 8,5 1,9 8,0 12,7 14,6 18 10 26 14 NNW 1015,5 40 0 0,0
14.12.2018 22:00:00 8,5 2,3 8,0 12,7 14,7 17 9 26 14 NNW 1015,0 40 0 0,0
14.12.2018 21:00:00 8,6 2,8 8,1 12,7 14,7 15 8 19 10 NW 1014,9 40 0 0,0
14.12.2018 20:00:00 9,1 3,9 8,7 12,7 14,8 9 5 14 7 NW 1014,4 40 0 0,0
14.12.2018 19:00:00 10,9 5,0 10,1 12,7 14,8 11 6 20 11 WNW 1014,0 40 0 0,0
14.12.2018 18:00:00 11,3 4,3 10,6 12,7 14,7 14 8 21 11 W 1013,3 40 0 0,0
14.12.2018 17:00:00 11,7 3,9 10,6 12,8 14,8 13 7 24 13 W 1012,9 40 0 0,0
14.12.2018 16:00:00 11,7 3,9 11,0 12,8 14,8 16 9 28 15 WSW 1012,6 40 42 0,0
14.12.2018 15:00:00 12,3 5,0 13,8 12,8 14,8 17 9 31 17 SW 1012,0 40 60 0,0
14.12.2018 14:00:00 12,4 5,5 13,8 12,8 14,8 19 10 25 14 SSW 1011,9 40 50 0,0
14.12.2018 13:00:00 13,1 1,7 12,6 12,8 14,8 4 2 12 7 SSW 1012,5 40 57 0,0
14.12.2018 12:00:00 10,7 1,0 11,1 12,8 14,8 10 5 18 10 NNW 1013,0 40 29 0,0
14.12.2018 11:00:00 9,6 0,7 9,2 12,8 14,8 12 7 21 11 NNW 1013,0 40 55 0,0
14.12.2018 10:00:00 7,5 0,7 5,3 12,8 14,8 19 10 28 15 NNW 1012,5 60 19 0,0
14.12.2018 09:00:00 5,8 0,1 5,0 12,8 14,8 15 8 26 14 NNW 1011,8 40 0 0,0
14.12.2018 08:00:00 6,2 0,3 5,5 12,8 14,9 17 9 22 12 NNW 1010,9 40 0 0,0
14.12.2018 07:00:00 6,6 0,5 6,0 12,8 14,8 18 10 28 15 NNW 1010,4 50 0 0,0
14.12.2018 06:00:00 6,9 1,0 6,1 12,8 14,9 11 6 19 10 NNW 1010,0 50 0 0,0
14.12.2018 05:00:00 7,1 1,0 6,5 12,8 15,0 14 7 21 11 NNW 1010,0 40 0 0,0
14.12.2018 04:00:00 7,7 1,3 6,8 12,8 14,9 15 8 18 10 NNW 1010,2 40 0 0,0
14.12.2018 03:00:00 7,6 1,9 6,9 12,9 14,9 11 6 20 11 NNW 1010,4 40 0 0,0
14.12.2018 02:00:00 7,8 2,0 7,2 12,9 14,8 14 8 24 13 NNW 1010,2 20 0 0,0
14.12.2018 01:00:00 7,8 2,5 7,2 12,9 15,0 16 9 23 12 NNE 1010,2 20 0 0,0
14.12.2018 00:00:00 7,9 2,8 7,4 12,9 14,8 10 6 24 13 NNW 1010,5 20 0 0,0
13.12.2018 23:00:00 8,0 2,9 7,6 12,9 15,1 10 6 22 12 N 1010,3 20 0 0,0
13.12.2018 22:00:00 8,3 3,1 7,8 12,9 15,3 14 7 23 12 N 1010,5 20 0 0,0
13.12.2018 21:00:00 8,4 3,2 7,9 12,9 15,0 14 8 21 11 N 1010,0 15 0 0,0
13.12.2018 20:00:00 8,5 3,1 8,2 12,9 14,9 15 8 29 16 N 1010,1 15 0 0,0
13.12.2018 19:00:00 9,6 -1,5 8,5 12,9 15,0 19 10 29 15 N 1009,8 15 0 0,0
13.12.2018 18:00:00 9,7 -1,1 8,8 12,9 14,9 17 9 24 13 N 1009,9 15 0 0,0
13.12.2018 17:00:00 9,4 3,8 8,8 12,9 14,9 13 7 18 10 N 1010,1 15 0 0,0
13.12.2018 16:00:00 9,7 3,9 9,1 12,9 14,9 14 8 31 17 NNW 1010,0 25 0 0,0
13.12.2018 15:00:00 11,1 0,8 10,7 12,9 14,9 17 9 30 16 E 1010,1 25 0 0,0
13.12.2018 14:00:00 11,1 1,1 11,3 12,9 15,0 19 11 39 21 E 1010,2 25 0 0,0
13.12.2018 13:00:00 11,1 1,6 10,3 12,9 15,0 30 16 39 21 E 1010,8 25 0 0,0
13.12.2018 12:00:00 10,1 3,4 8,0 13,0 14,9 15 8 28 15 E 1012,0 25 0 0,0
13.12.2018 11:00:00 8,1 3,5 8,1 13,0 14,9 13 7 37 20 WNW 1012,7 25 0 0,0
13.12.2018 10:00:00 10,6 2,4 8,2 13,0 15,0 27 15 39 21 E 1012,8 25 0 0,0
13.12.2018 09:00:00 10,4 3,2 8,1 13,0 15,1 25 14 40 22 E 1013,0 25 0 0,0
13.12.2018 08:00:00 10,4 3,0 9,8 13,0 15,0 29 16 45 24 E 1013,4 30 0 0,0
13.12.2018 07:00:00 10,5 2,1 10,0 13,0 14,7 31 17 49 27 E 1013,0 30 0 0,0
13.12.2018 06:00:00 10,5 2,6 6,6 13,0 15,3 32 18 44 24 E 1013,0 30 0 0,0
13.12.2018 05:00:00 6,8 2,5 6,6 13,0 15,0 15 8 40 22 NNW 1013,3 30 0 0,0
13.12.2018 04:00:00 9,4 2,5 6,8 13,0 14,9 28 15 44 24 ENE 1013,8 30 0 0,0
13.12.2018 03:00:00 8,2 4,0 7,1 13,0 15,0 16 9 48 26 NE 1014,5 30 0 0,0
13.12.2018 02:00:00 11,0 4,9 7,1 13,0 14,9 36 20 46 25 E 1014,2 30 0 0,0

tt = Température de l'air
td = dewpoint
tt 5cm = Température de l'air 5cm
tt -20cm = Température de l'air -20cm
tt -100cm = Température de l'air -100cm
ff = Vitesse du vent
fx = gusts
dd = Direction du vent
ppp = reduced air pressure
vv = visibility
sd = Ensoleillement
rr = Quantités de précipitations

stations d'obs. à proximité